Weather History for Aurora, NE

Change the Weather History Date:

Tuesday, May 20, 2014

  Actual Average Record
Temperature  
Mean Temperature 72 °F -  
Max Temperature 84 °F 75 °F 92 °F (1975)
Min Temperature 62 °F 51 °F 35 °F (1968)
Cooling Degree Days 8    
Growing Degree Days 22 (Base 50)    
Moisture  
Dew Point 56 °F    
Average Humidity 57    
Maximum Humidity 90    
Minimum Humidity 35    
Precipitation  
Precipitation 0.00 in - - ()
Sea Level Pressure  
Sea Level Pressure 29.82 in    
Wind  
Wind Speed 15 mph (NE)    
Max Wind Speed 26 mph    
Max Gust Speed 33 mph    
Visibility 10 miles    
Events      
Averages and records for this station are not official NWS values.
T = Trace of Precipitation, MM = Missing Value Source: NWS Daily Summary

Daily Weather History Graph

Daily Weather History Graph

Search for Another Location

Airport:

Trip Planner

Search our weather history database for the weather conditions in past years. The results will help you decide how hot, cold, wet, or windy it might be!

Date:

Astronomy

May. 20, 2014 Rise Set
Actual Time 6:09 AM CDT 8:47 PM CDT
Civil Twilight 5:38 AM CDT 9:19 PM CDT
Nautical Twilight 4:58 AM CDT 9:59 PM CDT
Astronomical Twilight 4:14 AM CDT 10:44 PM CDT
Moon 1:17 AM CDT (5/20) 12:19 PM CDT (5/20)
Length of Visible Light 15h 41m
Length of Day
14h 37m
Waning Gibbous, 60% of the Moon is Illuminated
May 20
Waning Gibbous
May 21
Last Quarter
May 28
New
Jun 5
First Quarter
Jun 12
Full

Hourly Weather History & Observations

Time (CDT) Temp. Heat Index Dew Point Humidity Pressure Visibility Wind Dir Wind Speed Gust Speed Precip Events Conditions
12:15 AM 69.8 °F - 58.5 °F 67% 29.74 in 10.0 mi NNE 11.5 mph - N/A   Clear
12:35 AM 68.4 °F - 58.8 °F 71% 29.75 in 10.0 mi North 9.2 mph - N/A   Clear
12:55 AM 68.0 °F - 59.0 °F 73% 29.74 in 10.0 mi NNE 12.7 mph - N/A   Clear
1:15 AM 68.0 °F - 59.0 °F 73% 29.74 in 10.0 mi North 16.1 mph - N/A   Clear
1:35 AM 67.8 °F - 58.8 °F 73% 29.77 in 10.0 mi North 15.0 mph - N/A   Clear
1:55 AM 67.8 °F - 59.0 °F 73% 29.76 in 10.0 mi NNE 12.7 mph - N/A   Clear
2:15 AM 67.5 °F - 58.8 °F 74% 29.74 in 10.0 mi NNE 10.4 mph - N/A   Clear
2:35 AM 66.6 °F - 59.0 °F 77% 29.73 in 10.0 mi NE 11.5 mph - N/A   Clear
2:55 AM 66.2 °F - 59.0 °F 78% 29.73 in 10.0 mi East 10.4 mph - N/A   Clear
3:55 AM 63.5 °F - 59.4 °F 86% 29.75 in 10.0 mi North 10.4 mph - N/A   Clear
4:15 AM 63.7 °F - 59.9 °F 87% 29.76 in 10.0 mi NNE 11.5 mph - N/A   Clear
4:35 AM 63.5 °F - 59.5 °F 87% 29.77 in 10.0 mi NNE 9.2 mph - N/A   Clear
4:55 AM 63.3 °F - 59.5 °F 87% 29.77 in 10.0 mi NNE 11.5 mph - N/A   Clear
5:15 AM 62.8 °F - 59.5 °F 89% 29.77 in 10.0 mi North 11.5 mph - N/A   Clear
5:35 AM 63.0 °F - 59.9 °F 90% 29.77 in 10.0 mi North 15.0 mph - N/A   Clear
5:55 AM 63.9 °F - 59.9 °F 87% 29.77 in 10.0 mi NNE 17.3 mph - N/A   Clear
6:15 AM 63.5 °F - 59.4 °F 86% 29.77 in 10.0 mi NNE 15.0 mph - N/A   Clear
6:35 AM 63.5 °F - 59.4 °F 86% 29.78 in 10.0 mi NNE 15.0 mph - N/A   Clear
6:55 AM 63.5 °F - 59.0 °F 85% 29.79 in 7.0 mi NNE 16.1 mph 21.9 mph N/A   Clear
7:15 AM 63.7 °F - 59.0 °F 85% 29.80 in 7.0 mi NNE 13.8 mph 18.4 mph N/A   Clear
7:35 AM 64.8 °F - 59.4 °F 83% 29.80 in 10.0 mi NE 12.7 mph 17.3 mph N/A   Clear
7:55 AM 66.4 °F - 58.1 °F 75% 29.81 in 10.0 mi NE 15.0 mph - N/A   Clear
8:15 AM 66.7 °F - 58.3 °F 74% 29.82 in 10.0 mi ENE 12.7 mph - N/A   Clear
8:35 AM 68.0 °F - 59.0 °F 73% 29.81 in 10.0 mi ENE 17.3 mph - N/A   Clear
8:55 AM 69.8 °F - 60.3 °F 72% 29.81 in 10.0 mi ENE 19.6 mph - N/A   Clear
9:15 AM 70.9 °F - 61.0 °F 71% 29.81 in 10.0 mi ENE 20.7 mph - N/A   Clear
9:35 AM 72.7 °F - 61.3 °F 67% 29.82 in 10.0 mi ENE 20.7 mph - N/A   Clear
9:55 AM 73.9 °F - 60.1 °F 62% 29.82 in 10.0 mi NE 25.3 mph 28.8 mph N/A   Clear
10:15 AM 75.4 °F - 60.1 °F 59% 29.83 in 10.0 mi NE 24.2 mph 29.9 mph N/A   Clear
10:35 AM 76.5 °F - 59.5 °F 56% 29.82 in 10.0 mi NE 26.5 mph 29.9 mph N/A   Clear
10:55 AM 76.8 °F - 59.2 °F 54% 29.82 in 10.0 mi NE 25.3 mph 32.2 mph N/A   Mostly Cloudy
11:15 AM 77.9 °F - 59.2 °F 52% 29.82 in 10.0 mi ENE 23.0 mph 31.1 mph N/A   Overcast
11:35 AM 78.3 °F - 59.0 °F 51% 29.81 in 10.0 mi NE 24.2 mph 32.2 mph N/A   Overcast
11:55 AM 78.4 °F - 58.1 °F 50% 29.83 in 10.0 mi NE 21.9 mph 28.8 mph N/A   Overcast
12:15 PM 78.4 °F - 57.0 °F 48% 29.84 in 10.0 mi NE 21.9 mph - N/A   Overcast
12:35 PM 80.8 °F 80.8 °F 56.5 °F 43% 29.83 in 10.0 mi NE 21.9 mph 31.1 mph N/A   Overcast
12:55 PM 82.2 °F 81.8 °F 56.1 °F 41% 29.83 in 10.0 mi ENE 25.3 mph 33.4 mph N/A   Mostly Cloudy
1:15 PM 81.5 °F 81.0 °F 54.9 °F 40% 29.83 in 10.0 mi NE 24.2 mph 31.1 mph N/A   Mostly Cloudy
1:35 PM 80.6 °F 80.4 °F 54.0 °F 40% 29.83 in 10.0 mi NE 21.9 mph - N/A   Overcast
1:55 PM 80.1 °F - 52.9 °F 39% 29.83 in 10.0 mi ENE 20.7 mph 26.5 mph N/A   Overcast
2:15 PM 79.9 °F - 50.7 °F 36% 29.83 in 10.0 mi NE 20.7 mph 25.3 mph N/A   Overcast
2:35 PM 80.8 °F - 51.6 °F 36% 29.83 in 10.0 mi NE 24.2 mph 28.8 mph N/A   Overcast
2:55 PM 81.5 °F - 52.3 °F 36% 29.84 in 10.0 mi ENE 20.7 mph 27.6 mph N/A   Overcast
3:15 PM 80.6 °F - 52.5 °F 38% 29.84 in 10.0 mi NE 20.7 mph - N/A   Overcast
3:35 PM 81.5 °F 80.8 °F 53.2 °F 38% 29.84 in 10.0 mi NE 21.9 mph - N/A   Overcast
3:55 PM 83.3 °F 82.0 °F 53.2 °F 35% 29.83 in 10.0 mi ENE 20.7 mph 27.6 mph N/A   Mostly Cloudy
4:15 PM 83.5 °F 82.2 °F 53.8 °F 36% 29.83 in 10.0 mi ENE 19.6 mph 25.3 mph N/A   Mostly Cloudy
4:35 PM 83.5 °F 82.1 °F 53.4 °F 35% 29.83 in 10.0 mi ENE 19.6 mph - N/A   Mostly Cloudy
4:55 PM 82.4 °F 81.3 °F 53.1 °F 36% 29.83 in 10.0 mi NE 18.4 mph 24.2 mph N/A   Overcast
5:15 PM 82.9 °F - 52.7 °F 35% 29.83 in 10.0 mi ENE 19.6 mph - N/A   Overcast
5:35 PM 83.7 °F 82.3 °F 53.2 °F 35% 29.83 in 10.0 mi NE 20.7 mph 24.2 mph N/A   Mostly Cloudy
5:55 PM 83.5 °F 82.4 °F 54.7 °F 37% 29.83 in 10.0 mi NE 17.3 mph 24.2 mph N/A   Clear
6:15 PM 82.0 °F 81.4 °F 54.5 °F 39% 29.83 in 10.0 mi NE 16.1 mph - N/A   Scattered Clouds
6:35 PM 82.8 °F 81.9 °F 54.9 °F 38% 29.83 in 10.0 mi NE 19.6 mph - N/A   Scattered Clouds
6:55 PM 82.4 °F 81.4 °F 54.0 °F 37% 29.82 in 10.0 mi NE 18.4 mph 23.0 mph N/A   Scattered Clouds
7:15 PM 82.2 °F 81.6 °F 55.6 °F 40% 29.82 in 10.0 mi ENE 15.0 mph 24.2 mph N/A   Clear
7:35 PM 81.5 °F 81.3 °F 56.1 °F 42% 29.83 in 10.0 mi NE 13.8 mph - N/A   Clear
7:55 PM 80.6 °F 80.6 °F 55.9 °F 43% 29.83 in 10.0 mi ENE 12.7 mph - N/A   Clear
8:15 PM 78.6 °F - 55.0 °F 44% 29.84 in 10.0 mi NE 10.4 mph - N/A   Clear
8:35 PM 76.3 °F - 53.8 °F 45% 29.85 in 10.0 mi NE 9.2 mph - N/A   Scattered Clouds
8:55 PM 74.1 °F - 52.3 °F 46% 29.86 in 10.0 mi NE 8.1 mph - N/A   Scattered Clouds
9:35 PM 71.8 °F - 51.1 °F 48% 29.87 in 10.0 mi NNE 8.1 mph - N/A   Scattered Clouds
9:55 PM 72.0 °F - 48.4 °F 43% 29.89 in 10.0 mi NNE 17.3 mph - N/A   Scattered Clouds
10:15 PM 71.6 °F - 45.9 °F 40% 29.90 in 10.0 mi NNE 15.0 mph - N/A   Clear
10:35 PM 70.5 °F - 45.7 °F 41% 29.90 in 10.0 mi NNE 15.0 mph - N/A   Clear
10:55 PM 68.9 °F - 46.4 °F 44% 29.90 in 10.0 mi NNE 13.8 mph - N/A   Clear
11:15 PM 68.0 °F - 46.6 °F 46% 29.90 in 10.0 mi North 12.7 mph - N/A   Clear
11:35 PM 66.7 °F - 47.3 °F 50% 29.90 in 10.0 mi North 11.5 mph - N/A   Clear
11:55 PM 66.4 °F - 47.3 °F 50% 29.91 in 10.0 mi North 11.5 mph - N/A   Clear